EA5SW-13 Weather Reports


Display with metric or nautical units.
time (UTC)temp
F
wind
direction
speed
MPH
gust
MPH
rain 1hr
in
rain 24hr
in
rain mn
in
humidity
%
barometer
mb
20260506204714 63 0.0 0.0 0.00 0.00 0.00 66
20260506203656 64 0.0 0.0 0.00 0.00 0.00 63
20260506202632 64 0.0 0.0 0.00 0.00 0.00 62
20260506201657 64 0.0 0.0 0.00 0.00 0.00 62
20260506200632 0 0.0 0.0 0.00 0.00 0.00
20260506195657 64 0.0 0.0 0.00 0.00 0.00 62
20260506194632 64 0.0 0.0 0.00 0.00 0.00 62
20260506193657 65 0.0 0.0 0.00 0.00 0.00 61
20260506192633 65 0.0 0.0 0.00 0.00 0.00 61
20260506191717 65 0.0 0.0 0.00 0.00 0.00 61
20260506190633 65 0.0 0.0 0.00 0.00 0.00 60
20260506185656 66 0.0 0.0 0.00 0.00 0.00 59
20260506184633 67 0.0 1.0 0.00 0.00 0.00 57
20260506183656 69 0.0 0.0 0.00 0.00 0.00 57
20260506182653 68 0.0 0.0 0.00 0.00 0.00 58
20260506181656 67 0.0 1.0 0.00 0.00 0.00 56
20260506180632 68 0.0 1.0 0.00 0.00 0.00 56
20260506175657 68 0.0 0.0 0.00 0.00 0.00 55
20260506174634 69 0.0 1.0 0.00 0.00 0.00 54
20260506173656 69 0.0 1.0 0.00 0.00 0.00 55
20260506172714 69 0.0 1.0 0.00 0.00 0.00 54
20260506171657 70 0.0 1.0 0.00 0.00 0.00 52
20260506170633 71 0.0 1.0 0.00 0.00 0.00 51
20260506165657 72 0.0 1.0 0.00 0.00 0.00 51
20260506164633 72 0.0 1.0 0.00 0.00 0.00 52
20260506163657 72 0.0 1.0 0.00 0.00 0.00 51
20260506162713 72 0.0 1.0 0.00 0.00 0.00 48
20260506161716 74 0.0 1.0 0.00 0.00 0.00 46
20260506160653 73 0.0 1.0 0.00 0.00 0.00 50
20260506155657 71 0.0 1.0 0.00 0.00 0.00 51
20260506154653 72 0.0 1.0 0.00 0.00 0.00 50
20260506153657 74 0.0 1.0 0.00 0.00 0.00 46
20260506152633 74 0.0 1.0 0.00 0.00 0.00 50
20260506151657 70 0.0 1.0 0.00 0.00 0.00 54
20260506150633 71 0.0 1.0 0.00 0.00 0.00 52
20260506145656 70 0.0 1.0 0.00 0.00 0.00 53
20260506144633 70 0.0 1.0 0.00 0.00 0.00 53
20260506143657 70 0.0 1.0 0.00 0.00 0.00 53
20260506142633 70 0.0 1.0 0.00 0.00 0.00 53
20260506141657 71 0.0 1.0 0.00 0.00 0.00 53
20260506140633 0 0.0 0.0 0.00 0.00 0.00
20260506135717 71 315 1.0 2.0 0.00 0.00 0.00 52
20260506134653 72 0.0 1.0 0.00 0.00 0.00 52
20260506133717 73 0.0 2.0 0.00 0.00 0.00 45
20260506132633 76 0.0 1.0 0.00 0.00 0.00 43
20260506131657 78 0.0 1.0 0.00 0.00 0.00 41
20260506130633 80 0.0 2.0 0.00 0.00 0.00 39
20260506125657 79 0.0 1.0 0.00 0.00 0.00 39
20260506124633 79 315 0.0 2.0 0.00 0.00 0.00 40
20260506123657 80 0.0 1.0 0.00 0.00 0.00 40
20260506122633 79 0.0 1.0 0.00 0.00 0.00 41
20260506121657 79 0.0 1.0 0.00 0.00 0.00 40
20260506120633 78 0.0 1.0 0.00 0.00 0.00 42
20260506115657 78 0.0 1.0 0.00 0.00 0.00 42
20260506114633 78 0.0 1.0 0.00 0.00 0.00 42
20260506113657 77 0.0 1.0 0.00 0.00 0.00 42
20260506112634 76 0.0 1.0 0.00 0.00 0.00 41
20260506111657 76 0.0 1.0 0.00 0.00 0.00 41
20260506110721 74 315 1.0 2.0 0.00 0.00 0.00 41
20260506105718 73 0.0 1.0 0.00 0.00 0.00 42
20260506104721 73 0.0 2.0 0.00 0.00 0.00 41
20260506103657 72 0.0 1.0 0.00 0.00 0.00 44
20260506102634 72 0.0 1.0 0.00 0.00 0.00 45
20260506101657 71 0.0 1.0 0.00 0.00 0.00 48
20260506100634 70 315 1.0 2.0 0.00 0.00 0.00 47
20260506095657 70 0.0 0.0 0.00 0.00 0.00 48
20260506094633 68 0.0 1.0 0.00 0.00 0.00 51
20260506093657 68 0.0 0.0 0.00 0.00 0.00 52
20260506092634 67 0.0 1.0 0.00 0.00 0.00 53
20260506091658 67 0.0 0.0 0.00 0.00 0.00 54
20260506090633 66 0.0 1.0 0.00 0.00 0.00 54
20260506085658 66 0.0 1.0 0.00 0.00 0.00 56
20260506084634 65 0.0 0.0 0.00 0.00 0.00 56
20260506083658 65 0.0 1.0 0.00 0.00 0.00 57
20260506082633 65 0.0 1.0 0.00 0.00 0.00 59
20260506081657 64 0.0 0.0 0.00 0.00 0.00 60
20260506080722 64 0.0 0.0 0.00 0.00 0.00 60
20260506072634 62 0.0 0.0 0.00 0.00 0.00 63
20260506071657 62 0.0 1.0 0.00 0.00 0.00 64
20260506070634 62 0.0 1.0 0.00 0.00 0.00 65
20260506061658 59 0.0 0.0 0.00 0.00 0.00 71
20260506060654 59 0.0 0.0 0.00 0.00 0.00 73
20260506050633 58 0.0 0.0 0.00 0.00 0.00 75
20260506044634 58 0.0 0.0 0.00 0.00 0.00 74
20260506043717 58 0.0 0.0 0.00 0.00 0.00 73
20260506042634 58 0.0 0.0 0.00 0.00 0.00 72
20260506041700 58 0.0 0.0 0.00 0.00 0.00 72
20260506040633 59 0.0 0.0 0.00 0.00 0.00 71
20260506035338 59 0.0 0.0 0.00 0.00 0.00 71
20260506034254 60 0.0 0.0 0.00 0.00 0.00 71
20260506033258 60 0.0 0.0 0.00 0.00 0.00 71
20260506032323 60 0.0 0.0 0.00 0.00 0.00 71
20260506031257 60 0.0 0.0 0.00 0.00 0.00 71
20260506030234 60 0.0 0.0 0.00 0.00 0.00 71
20260506025658 60 0.0 1.0 0.00 0.00 0.00 70
20260506024634 60 0.0 0.0 0.00 0.00 0.00 70
20260506023658 60 0.0 0.0 0.00 0.00 0.00 70
20260506022653 60 0.0 0.0 0.00 0.00 0.00 69
20260506021658 60 0.0 0.0 0.00 0.00 0.00 68
20260506020634 0 0.0 0.0 0.00 0.00 0.00
20260506015658 60 0.0 0.0 0.00 0.00 0.00 64
20260506014634 61 0.0 0.0 0.00 0.00 0.00 64
20260506013658 61 0.0 0.0 0.00 0.00 0.00 63
20260506012634 61 0.0 0.0 0.00 0.00 0.00 63
20260506011658 61 0.0 0.0 0.00 0.00 0.00 63
20260506010634 61 0.0 0.0 0.00 0.00 0.00 62
20260506005658 61 0.0 0.0 0.00 0.00 0.00 61
20260506004634 62 0.0 0.0 0.00 0.00 0.00 61
20260506003658 62 0.0 0.0 0.00 0.00 0.00 60
20260506002634 63 0.0 0.0 0.00 0.00 0.00 60
20260506001718 63 0.0 0.0 0.00 0.00 0.00 60
20260506000634 0 0.0 0.0 0.00 0.00 0.00
20260505235658 63 0.0 1.0 0.00 0.00 0.00 61
20260505234634 63 0.0 1.0 0.00 0.00 0.00 61
20260505233658 63 0.0 1.0 0.00 0.00 0.00 61
20260505232634 63 0.0 0.0 0.00 0.00 0.00 61
20260505231658 63 0.0 1.0 0.00 0.00 0.00 62
20260505230722 63 0.0 1.0 0.00 0.00 0.00 62
20260505225658 63 0.0 1.0 0.00 0.00 0.00 62
20260505224634 64 0.0 1.0 0.00 0.00 0.00 58
20260505223658 64 0.0 1.0 0.00 0.00 0.00 57
20260505222634 64 0.0 1.0 0.00 0.00 0.00 58
20260505221659 64 0.0 1.0 0.00 0.00 0.00 59
20260505220634 0 0.0 0.0 0.00 0.00 0.00
20260505215658 64 0.0 1.0 0.00 0.00 0.00 61
20260505214634 64 180 0.0 2.0 0.00 0.00 0.00 61
20260505213658 65 0.0 1.0 0.00 0.00 0.00 62
20260505212634 65 0.0 1.0 0.00 0.00 0.00 63
20260505211659 65 0.0 1.0 0.00 0.00 0.00 63
20260505210634 65 0.0 1.0 0.00 0.00 0.00 65
20260505205659 66 0.0 1.0 0.00 0.00 0.00 68